Flag Weather past 2 weeks in Rapid City, South Dakota, U.S.A.

Now
34 °F

Passing clouds.


Feels Like: 20 °F
Forecast: 25 / 35 °F
Wind: 30 mph from North

Location: Ellsworth Air Force Base

Current Time: Nov 23, 2014 at 10:23:29 PM

Latest Report: Nov 23, 2014 at 9:58 PM


Visibility: 10 mi

Pressure: 29.76 "Hg

Humidity: 57%

Dew point: 20 °F

Location of Rapid CityLocation

Historic Weather in Rapid City — Graph

°F

Rapid City temperature yesterday

Maximum temperature yesterday: 56 °F (at 12:58 PM)
Minimum temperature yesterday: 30 °F (at 1:58 AM)
Average temperature yesterday: 42 °F

Past Weeks' High & Low Weather Summary

 TemperatureHumidityPressure
High56 °F (Nov 22, 12:58 PM)100% (Nov 9, 10:58 PM)30.81 "Hg (Nov 9, 10:58 PM)
Low-9 °F (Nov 13, 3:58 AM)33% (Nov 21, 12:58 PM)29.41 "Hg (Nov 22, 7:59 PM)
Average19 °F71%30.15 "Hg
* Reported Nov 8 8:58 PM — Nov 23 8:58 PM, Rapid City, Weather by CustomWeather, © 2014

Note: Actual official high and low records may vary slightly from our data, if they occured in-between our weather recording intervals... More about our weather records

Advertising

Rapid City weather history for previous 24 hours

 ConditionsComfort  
Time TempWeatherWind HumidityBarometerVisibility
8:58 PM
Nov 23
35 °FPassing clouds.31 mph57%29.74 "Hg10 mi
7:58 PM35 °FPassing clouds.29 mph57%29.76 "Hg10 mi
6:58 PM34 °FClear.22 mph65%29.78 "Hg10 mi
5:58 PM34 °FClear.26 mph62%29.77 "Hg10 mi
4:58 PM35 °FClear.26 mph58%29.77 "Hg10 mi
3:58 PM36 °FSunny.31 mph54%29.76 "Hg10 mi
2:58 PM38 °FLight rain. More clouds than sun.39 mph50%29.74 "Hg10 mi
1:58 PM39 °FOvercast.35 mph50%29.73 "Hg9 mi
12:58 PM40 °FScattered clouds.39 mph52%29.73 "Hg8 mi
11:58 AM41 °FLight rain. Scattered clouds.38 mph45%29.72 "Hg10 mi
10:58 AM42 °FSunny.43 mph42%29.71 "Hg9 mi
9:58 AM41 °FSunny.29 mph41%29.74 "Hg8 mi
8:58 AM40 °FSunny.39 mph44%29.73 "Hg9 mi
7:58 AM37 °FSunny.25 mph50%29.72 "Hg9 mi
6:58 AM36 °FSunny.23 mph48%29.70 "Hg10 mi
5:58 AM37 °FClear.24 mph46%29.67 "Hg10 mi
4:58 AM36 °FClear.21 mph51%29.67 "Hg10 mi
3:58 AM35 °FClear.14 mph58%29.65 "Hg10 mi
2:58 AM38 °FClear.21 mph49%29.62 "Hg10 mi
1:58 AM40 °FOvercast.25 mph45%29.57 "Hg10 mi
12:58 AM41 °FOvercast.23 mph48%29.53 "Hg10 mi
11:58 PM
Nov 22
39 °FMostly cloudy.20 mph62%29.53 "Hg10 mi
10:58 PM38 °FPartly cloudy.18 mph82%29.52 "Hg10 mi
Weather by CustomWeather, © 2014

See weather overviewHow to use our weather pages